カタログに戻る

STARLINK-36508

運用中通信VLEO
NORAD 67410·PAYLOAD·🇺🇸 United States

打ち上げ Jan 12, 2026 から Cape Canaveral Space Force Station

Loading…

次のパス (今後24時間)

TLE

最新Source: CelesTrak SupGP

元期: Sep 14, 2026, 22:40 UTC

1 67410C 26005G   26257.94493056  .00030405  00000+0  11013-2 0  2579
2 67410  42.9994 249.5482 0001375 260.4420 195.1353 15.27562899    17

AllMySatでSTARLINK-36508をリアルタイム追跡

Download on the App Store